Weather Roundup
Issued by NWS Chicago, IL

Home | Current Version | Previous Version | Text Only | Print | Product List | Glossary On
Versions: 1 2 3 4 5 6 7 8 9 10 11 12 13 14 15 16 17 18 19 20 21 22 23 24 25 26 27 28 29 30 31 32 33 34 35 36 37 38 39 40 41 42 43 44 45 46 47 48 49 50
000
NZUS59 KLOT 290110
HRRLOT

CHICAGO AREA WEATHER ROUNDUP
NATIONAL WEATHER SERVICE CHICAGO/ROMEOVILLE IL
800 PM CDT THU AUG 28 2014

NOTE: "FAIR" INDICATES FEW OR NO CLOUDS BELOW 12,000 FEET WITH NO
SIGNIFICANT WEATHER AND/OR OBSTRUCTIONS TO VISIBILITY.

* THESE STATIONS ARE NOT UNDER NWS QUALITY CONTROL. THEY ALSO MAY NOT
  REPORT WEATHER SUCH AS PRECIPITATION OR FOG.

ILZ005-006-012>014-019>023-290200-
NORTHEAST ILLINOIS

CITY           SKY/WX    TMP DP  RH WIND       PRES   REMARKS
OHARE          CLOUDY    71  58  63 E8        30.05S
MIDWAY         LGT RAIN  74  64  71 E12       30.04F
AURORA         LGT RAIN  69  62  78 CALM      30.06R
LANSING*       MOCLDY    71  64  78 NE5       30.05S
JOLIET*        CLOUDY    72  61  68 E8        30.06R
WAUKEGAN       CLOUDY    67  60  78 E5        30.05S
DUPAGE AIRPORT CLOUDY    69  61  75 E5        30.05S
WHEELING       CLOUDY    70  61  73 E3        30.07S
KANKAKEE*      MOCLDY    72  66  81 E3        30.04S
MORRIS*        HVY RAIN  71  67  89 NW15      30.07R
LEWIS AIRPORT* DRIZZLE   71  62  73 E9        30.05R
NORTHERLY IS     N/A     71  64  78 E7          N/A
$$

WIZ051-052-058>065-066-070>072-290200-
SOUTHEAST WISCONSIN

CITY           SKY/WX    TMP DP  RH WIND       PRES   REMARKS
MILWAUKEE      CLOUDY    67  56  67 E8        30.07S
KENOSHA*       CLOUDY    66  60  81 E7        30.06S
RACINE*        CLOUDY    68  57  68 E7        30.08S
BURLINGTON     CLOUDY    64  58  81 E5        30.06S
WAUKESHA       MOCLDY    63  55  77 E7        30.08F
WEST BEND      CLOUDY    63  54  72 CALM      30.08S
$$

INZ001>003-010>013-019-020-290200-
NORTHWEST INDIANA

CITY           SKY/WX    TMP DP  RH WIND       PRES   REMARKS
GARY*          CLOUDY    72  64  78 NE6       30.06S
MICHIGAN CITY* NOT AVBL
RENSSELAER*    NOT AVBL
VALPARAISO     PTCLDY    69  65  86 NE3       30.07R
$$

LMZ740>746-290200-
SOUTHERN LAKE MICHIGAN

STATION/POSITION TIME  SKY/WX   TEMP WIND        PRES    VSBY
                                AIR  DIR/SP/G
                 (UTC)          (F)  (DEG/KT/KT) (MB)    (MI)
HARRISON CRIB    0100            70   70/ 11/ 12   N/A
BURNHAM HARBOR   0100            71   70/  8/  9   N/A
CALUMET HARBOR   0100            71   50/  7/  9 1016.5S
BURNS HARBOR     NOT AVBL
MICHIGAN CITY    0100            70   30/  8/  9   N/A
$$

ABBREVIATIONS USED IN REMARKS
   TC - TEMPERATURE IN CELSIUS
  WCI - WIND CHILL INDEX
   HX - HEAT INDEX
  VSB - VISIBILITY
$$



USA.gov is the U.S. government's official web portal to all federal, state and local government web resources and services.